SCP
0 0 0 0 0 0 0 1 0 0 0 0 0 1 1 1 1 1 1 0 0 0 0 1 1 0 0 0 0 1 1 1 1 1 1 1 1 2 2 1 1 1 1
0 0 0 0 0 0 0 0 0 0 0 0 0 1 1 1 1 1 0 0 0 0 0 0 0 0 0 0 1 1 1 1 1 1 1 1 1 1 1 1 1 1 1
0 0 0 0 0 0 0 0 0 1 1 1 0 0 1 1 1 0 0 0 0 0 0 0 0 0 0 1 1 1 1 1 1 1 1 1 1 1 1 1 1 1 1
0 0 0 0 0 0 0 0 0 1 1 1 1 1 0 1 1 0 0 0 0 0 0 0 0 1 1 1 1 0 0 1 1 1 1 1 1 1 1 1 1 1 1
0 0 0 0 0 0 0 0 0 0 1 1 1 1 0 0 0 0 0 0 0 0 0 0 0 1 1 0 0 0 0 1 1 1 1 1 1 1 1 1 1 1 1
0 0 0 0 0 0 0 0 0 0 0 1 1 1 0 0 0 0 0 0 0 0 0 0 0 0 0 0 0 0 1 1 1 1 1 1 0 1 1 1 1 1 1
1 0 0 0 0 0 0 0 0 0 0 1 1 1 0 0 0 0 0 0 0 0 0 0 0 0 0 0 0 0 1 1 1 0 1 1 1 1 1 1 1 1 1
1 1 0 1 0 0 0 0 0 0 0 0 0 0 0 0 0 0 0 0 0 0 0 0 0 0 0 0 0 1 1 1 1 1 1 1 1 1 1 1 1 1 1
1 1 0 0 0 0 0 0 0 0 0 0 0 0 0 0 0 0 0 0 0 0 0 0 0 0 0 0 0 1 1 1 1 1 1 1 1 1 1 1 1 1 1
0 0 0 0 0 0 0 0 0 0 0 0 0 0 0 0 0 0 0 0 0 1 1 1 1 1 0 0 0 1 1 1 1 1 1 1 1 1 1 1 1 1 1
0 0 0 0 0 0 0 0 0 0 0 0 0 0 0 0 0 0 0 0 1 1 1 1 1 1 0 0 0 0 1 1 1 1 1 1 1 1 1 1 1 1 1
0 0 0 0 0 0 0 0 0 0 0 0 0 0 0 0 0 0 0 0 1 1 1 1 1 0 0 0 0 0 0 1 1 1 1 1 1 1 1 1 1 1 1
0 0 0 0 0 0 0 0 0 0 0 0 0 0 0 0 0 0 0 0 0 1 1 0 0 0 0 0 0 0 0 0 0 1 1 1 1 1 1 1 1 1 1
0 0 0 0 0 0 0 0 0 0 0 0 0 0 0 0 0 0 0 0 0 0 0 0 0 0 0 0 0 0 0 0 0 0 0 1 1 1 1 1 1 1 1
0 0 0 0 0 0 0 0 0 0 0 0 0 0 0 0 0 0 0 0 0 0 0 0 0 0 0 0 0 0 0 0 0 0 0 0 0 1 1 1 1 1 1
0 0 0 0 0 0 0 0 0 0 0 0 0 0 0 0 0 0 0 0 0 0 0 0 0 0 0 0 0 0 0 0 0 0 0 0 0 0 1 1 1 1 1
1 0 0 0 0 0 0 0 0 0 0 0 0 0 0 0 0 0 0 0 0 0 0 0 0 0 0 0 0 0 0 0 0 0 0 0 0 0 0 1 1 1 1
1 1 0 0 0 0 0 0 0 0 0 0 0 0 0 0 0 0 0 0 0 0 0 0 0 0 0 0 0 0 0 0 0 0 0 0 0 0 0 1 1 1 1
1 1 0 0 0 0 0 0 0 0 0 0 0 0 0 0 0 0 0 0 0 0 0 0 0 0 0 0 0 0 0 0 0 0 0 0 0 0 0 0 1 1 1
1 1 1 0 0 0 0 0 0 0 0 0 0 0 0 0 0 0 0 0 0 0 0 0 0 0 0 0 0 0 0 0 0 0 0 0 0 0 0 0 0 0 0
1 1 1 1 0 0 0 0 0 0 0 0 0 0 0 0 0 0 0 0 0 0 0 0 0 0 0 0 0 0 0 0 0 0 0 0 0 0 0 0 0 0 0
2 1 1 1 1 1 1 1 1 0 0 0 0 0 0 0 0 0 0 0 0 0 0 0 0 0 0 0 0 0 0 0 0 0 0 0 0 0 0 0 0 1 0
2 2 1 1 1 1 1 1 1 1 1 1 0 0 1 1 1 0 0 0 0 0 0 0 0 0 0 0 0 0 0 0 0 0 0 0 0 0 0 0 0 1 1
3 3 2 1 1 1 1 1 1 1 1 1 0 0 0 1 1 1 0 0 0 0 0 0 0 0 0 0 0 0 0 0 0 0 0 0 0 0 0 0 1 1 1
3 3 3 2 1 1 1 1 1 1 1 1 1 0 0 0 1 1 1 0 0 0 0 0 0 0 0 0 0 0 0 0 0 0 0 0 0 0 0 0 1 1 1
3 4 3 2 2 1 1 1 1 1 1 1 1 1 0 0 1 1 1 1 0 0 0 0 0 0 0 0 0 0 0 0 0 0 0 0 0 0 0 0 0 1 1
Wind_Speed
1 1 5 6 7 8 8 8 8 9 9 9 10 10 11 11 11 11 11 10 10 10 10 10 10 9 9 9 9 8 8 8 8 8 7 8 8 8 8 8 7 4 7
4 2 6 7 7 8 8 8 8 9 9 9 9 10 10 10 11 11 10 10 10 10 10 9 9 9 9 9 8 8 8 8 8 7 7 7 8 8 8 8 7 4 6
5 3 4 7 8 8 8 8 8 9 9 9 9 10 10 10 10 10 10 10 10 10 10 9 9 9 9 9 8 8 8 8 8 7 7 4 4 7 8 7 7 7 6
5 4 4 7 8 8 8 8 8 9 9 9 10 10 10 10 10 10 10 10 10 10 9 9 9 9 9 9 9 8 8 8 8 7 4 3 3 7 7 7 7 7 6
5 4 5 8 8 8 8 8 8 8 8 9 9 9 9 9 10 10 10 10 9 9 9 9 9 9 9 10 10 9 9 8 8 6 3 3 2 6 7 7 7 6 6
5 4 5 8 9 9 9 9 8 8 8 9 9 9 9 9 9 10 10 9 9 9 9 9 9 8 8 9 9 9 9 9 7 4 3 2 2 6 7 7 7 7 7
5 3 4 8 9 9 9 9 9 9 8 8 9 9 9 9 9 9 9 9 8 8 8 8 7 8 8 8 9 9 9 9 5 3 3 2 3 6 7 7 7 7 6
6 4 4 8 9 9 9 9 9 8 8 9 8 8 8 8 8 8 8 9 8 8 8 7 7 7 8 8 8 8 9 8 6 4 3 2 5 7 7 7 7 6 6
5 4 3 3 5 7 8 8 8 8 8 7 7 7 7 7 7 7 7 8 8 7 7 7 6 7 8 8 8 8 9 9 4 2 4 2 6 7 7 7 7 7 7
5 4 3 3 2 2 3 6 7 7 7 7 6 6 6 6 6 6 6 6 7 7 6 6 6 6 7 7 8 9 9 7 4 3 2 4 8 8 8 7 7 8 8
4 3 3 3 2 2 2 3 4 5 5 4 4 4 4 2 2 3 4 6 6 6 6 6 6 6 7 8 9 9 7 3 3 3 2 7 8 8 8 8 8 8 8
4 3 3 3 3 2 2 2 1 2 1 1 1 1 2 1 1 2 3 4 4 5 5 6 6 6 5 4 6 7 3 4 3 3 3 8 9 9 9 9 9 9 9
5 4 4 4 3 3 2 2 1 1 1 1 1 2 2 2 2 2 2 2 3 3 3 4 5 3 3 3 3 3 4 3 2 2 3 8 9 9 9 9 9 9 8
4 4 4 4 4 3 2 2 2 1 1 1 1 2 2 2 2 1 1 2 2 2 2 2 2 3 4 3 3 4 4 3 2 2 3 8 8 9 10 10 9 9 9
4 4 5 4 4 3 2 2 2 1 1 1 1 1 3 2 2 2 1 2 1 2 2 2 2 3 3 3 3 4 4 4 3 3 3 7 8 9 9 10 10 9 9
4 4 4 4 4 4 3 2 2 2 1 1 1 2 3 2 2 2 2 2 2 1 2 2 2 2 2 2 3 3 3 3 3 3 3 4 7 9 9 10 10 10 9
5 4 4 5 4 4 4 3 2 2 2 2 1 2 3 3 3 3 3 2 1 2 3 3 3 3 3 3 3 3 3 3 3 3 3 2 3 6 9 9 9 9 10
5 4 4 5 5 4 3 3 2 2 2 1 1 2 3 3 4 3 3 2 1 2 2 3 3 3 3 3 2 2 2 2 2 2 2 2 2 2 4 7 8 8 9
6 5 4 4 5 4 3 3 2 2 2 1 1 2 2 3 4 3 2 1 2 2 2 2 2 2 2 2 2 2 2 2 1 2 2 2 2 2 2 4 6 7 7
5 5 5 4 4 4 3 2 2 2 1 1 1 2 2 2 3 3 2 2 3 3 2 2 2 2 2 1 3 3 2 2 1 1 1 1 1 2 2 2 2 3 6
4 5 4 4 3 3 2 2 2 1 0 1 1 1 2 3 3 3 3 2 2 2 2 2 2 2 2 1 3 3 3 3 2 1 1 1 1 1 2 2 1 1 2
5 5 5 4 3 3 3 3 2 2 1 1 1 1 2 3 3 3 3 2 2 2 2 1 2 2 1 1 2 2 2 3 3 2 1 1 1 1 1 2 1 2 1
5 6 5 5 4 3 3 2 2 2 2 2 1 0 1 2 2 2 3 2 2 2 2 1 2 3 2 0 1 3 3 1 2 3 2 1 0 1 1 1 2 2 2
7 6 6 5 5 4 4 4 4 3 2 2 2 1 1 1 1 2 2 2 2 2 2 2 2 2 3 1 0 0 2 3 2 1 2 2 1 0 1 1 2 2 2
7 6 6 5 5 4 4 4 4 3 2 1 1 1 1 1 1 2 2 2 2 2 2 2 1 2 2 2 2 1 1 1 2 2 1 2 2 1 1 1 2 2 2
6 5 5 6 5 4 5 5 5 4 3 2 2 2 1 1 1 2 2 2 2 2 2 2 2 2 2 2 2 2 2 2 2 2 2 2 1 2 1 1 1 2 2
Wind_Direction
163 173 116 108 101 95 89 93 94 90 88 86 87 88 88 87 87 86 86 85 84 82 80 77 76 76 77 78 81 82 82 83 86 84 81 80 82 91 98 96 97 96 104
157 153 120 111 105 99 93 95 95 95 91 90 89 88 87 87 86 86 86 85 85 84 82 79 76 76 75 75 78 78 77 79 82 78 80 81 84 88 95 97 96 99 102
137 139 124 115 111 105 99 99 101 100 98 95 92 90 89 88 86 86 85 86 86 86 85 81 77 75 74 73 76 75 74 75 79 74 75 67 79 88 94 96 92 93 96
135 132 126 120 114 109 104 104 105 103 100 98 95 93 92 89 87 85 86 87 86 85 83 81 78 75 71 71 73 72 70 74 72 69 67 63 76 93 97 97 93 89 88
125 125 127 122 117 113 110 108 109 108 104 102 100 97 95 92 90 88 86 86 84 82 80 79 77 76 73 72 71 69 67 72 70 64 60 67 76 96 97 95 92 91 90
123 122 122 120 117 113 110 107 107 107 105 104 102 99 97 95 93 89 88 87 85 83 82 80 79 75 72 72 70 68 70 69 65 60 61 77 87 102 102 95 89 87 89
124 120 123 120 118 115 111 107 106 107 106 104 102 99 98 98 95 92 91 91 90 87 85 83 79 73 72 72 70 68 70 72 68 62 62 70 96 101 100 98 93 90 95
132 126 119 123 122 119 114 112 110 110 107 103 102 101 100 99 96 95 96 94 93 91 88 84 81 77 74 71 70 70 69 67 66 66 65 67 100 102 100 99 97 97 100
125 124 110 115 118 119 117 115 115 114 111 108 106 103 100 99 98 97 100 100 98 95 91 87 83 76 69 67 69 71 69 67 56 57 74 69 95 99 99 97 94 94 96
119 124 129 122 112 114 114 118 118 118 113 112 109 106 104 101 100 98 100 103 100 95 91 86 81 72 64 66 72 71 69 66 53 56 55 84 92 93 94 93 94 93 93
123 137 141 138 137 135 131 124 115 112 110 108 102 102 98 78 80 91 102 102 97 89 84 77 73 66 61 67 71 68 68 59 58 57 58 85 90 90 90 91 93 91 90
147 158 153 148 155 155 141 113 97 93 82 77 73 71 76 87 88 87 82 91 86 78 69 65 64 63 58 56 64 65 58 60 59 58 74 86 90 91 91 90 91 90 89
165 155 154 159 158 153 140 134 115 95 80 74 95 98 96 83 67 54 45 45 44 50 43 46 53 55 57 62 67 67 67 65 56 49 70 87 90 93 92 90 91 91 90
149 152 152 154 153 150 135 127 123 119 112 102 96 108 108 101 89 76 58 46 42 41 47 48 55 55 57 62 79 79 75 72 58 48 62 83 90 92 92 90 90 91 91
152 151 154 146 149 142 121 118 109 118 116 116 105 103 117 116 111 106 89 72 60 60 67 68 71 66 61 63 80 90 86 80 67 55 49 74 87 89 90 90 87 90 91
160 156 147 142 146 132 126 126 126 123 115 100 91 103 118 117 118 107 97 82 64 63 78 83 87 83 74 77 83 88 94 93 79 67 51 57 75 84 88 88 86 87 92
161 155 144 144 138 133 135 135 126 120 106 93 85 89 98 104 114 109 98 85 75 71 75 69 62 63 66 72 77 82 87 90 92 76 63 49 48 71 83 86 88 86 90
157 153 150 141 135 139 137 129 118 112 105 96 91 91 97 105 109 104 101 95 89 75 73 78 66 64 56 59 61 64 76 87 98 97 78 63 48 48 64 77 85 89 91
162 155 146 136 140 144 135 122 112 107 100 97 86 93 108 109 111 110 107 103 93 80 66 83 72 80 75 64 70 62 52 65 80 103 93 85 77 66 57 69 79 84 90
157 152 146 141 143 140 124 105 90 80 69 71 87 101 118 118 119 116 110 101 97 89 69 73 79 69 78 72 72 57 35 37 53 81 128 115 94 99 85 69 64 72 86
142 142 141 137 145 137 127 129 124 131 145 69 86 105 115 112 113 117 117 109 106 108 116 114 105 83 60 69 68 33 11 21 35 32 61 89 96 129 104 85 75 63 83
159 155 149 146 145 147 157 162 157 155 155 131 81 79 100 111 119 124 129 132 128 114 105 113 117 117 91 85 108 88 22 357 353 4 18 80 86 106 126 134 103 102 87
165 167 162 159 154 155 149 132 103 69 47 46 45 62 102 127 128 133 138 135 140 140 154 161 156 144 160 280 128 138 137 208 305 335 350 16 49 100 144 147 143 134 132
177 171 163 163 162 164 154 144 144 144 163 205 198 182 149 139 143 146 152 149 160 168 174 183 157 158 152 185 290 164 163 158 154 308 330 336 338 199 194 164 163 163 152
172 166 166 161 161 163 158 156 156 154 177 189 159 147 163 191 182 169 169 168 179 190 193 186 165 172 167 170 179 173 132 100 128 147 242 310 330 297 244 199 172 173 176
170 165 164 162 170 170 161 161 163 165 165 155 158 175 209 242 239 227 196 188 197 203 201 199 193 187 187 179 183 176 167 164 174 157 188 239 262 286 286 239 186 187 188